This is the latest recevied weather packets stored in our database for station/object DM4XI-13. If no packets are shown the sender has not sent any weather packets the latest 10 day(s).
| Time | Temp. | Humidity | Pressure | Rain* | Wind** | Luminosity | Snow |
|---|---|---|---|---|---|---|---|
| 1777169402 | 8.33° C | 49% | 1016.5 hPa | 0 mm | 1.34 m/s, 282° | 0 W/m² | - |
| 1777169341 | 8.33° C | 49% | 1016.6 hPa | 0 mm | 0.45 m/s, 268° | 0 W/m² | - |
| 1777169280 | 8.33° C | 49% | 1016.6 hPa | 0 mm | 0.89 m/s, 286° | 0 W/m² | - |
| 1777169219 | 8.33° C | 49% | 1016.5 hPa | 0 mm | 0.89 m/s, 290° | 0 W/m² | - |
| 1777169158 | 8.33° C | 49% | 1016.5 hPa | 0 mm | 0.89 m/s, 245° | 0 W/m² | - |
| 1777169097 | 8.33° C | 49% | 1016.3 hPa | 0 mm | 0.89 m/s, 308° | 0 W/m² | - |
| 1777169037 | 8.33° C | 49% | 1016.4 hPa | 0 mm | 0.89 m/s, 311° | 0 W/m² | - |
| 1777168975 | 8.33° C | 49% | 1016.4 hPa | 0 mm | 1.34 m/s, 318° | 0 W/m² | - |
| 1777168915 | 8.33° C | 48% | 1016.5 hPa | 0 mm | 0.89 m/s, 283° | 0 W/m² | - |
| 1777168856 | 8.33° C | 48% | 1016.4 hPa | 0 mm | 1.34 m/s, 307° | 0 W/m² | - |
| 1777168792 | 8.33° C | 48% | 1016.2 hPa | 0 mm | 1.34 m/s, 254° | 0 W/m² | - |
| 1777168731 | 8.33° C | 48% | 1016.4 hPa | 0 mm | 0.89 m/s, 252° | 0 W/m² | - |
| 1777168670 | 8.33° C | 48% | 1016.4 hPa | 0 mm | 0.89 m/s, 294° | 0 W/m² | - |
| 1777168609 | 8.33° C | 48% | 1016.3 hPa | 0 mm | 1.79 m/s, 303° | 0 W/m² | - |
| 1777168549 | 8.33° C | 48% | 1016.3 hPa | 0 mm | 1.34 m/s, 312° | 0 W/m² | - |
| 1777168488 | 8.33° C | 48% | 1016.2 hPa | 0 mm | 1.34 m/s, 259° | 0 W/m² | - |
| 1777168426 | 8.33° C | 48% | 1016.4 hPa | 0 mm | 1.34 m/s, 277° | 0 W/m² | - |
| 1777168365 | 8.33° C | 48% | 1016.3 hPa | 0 mm | 0.45 m/s, 255° | 0 W/m² | - |
| 1777168304 | 8.33° C | 48% | 1016.5 hPa | 0 mm | 1.34 m/s, 261° | 0 W/m² | - |
| 1777168243 | 8.33° C | 48% | 1016.4 hPa | 0 mm | 0.89 m/s, 306° | 0 W/m² | - |
| 1777168182 | 8.33° C | 48% | 1016.3 hPa | 0 mm | 1.34 m/s, 279° | 0 W/m² | - |
| 1777168121 | 8.33° C | 48% | 1016.3 hPa | 0 mm | 0.89 m/s, 282° | 0 W/m² | - |
| 1777168060 | 8.33° C | 48% | 1016.5 hPa | 0 mm | 0.89 m/s, 291° | 0 W/m² | - |
| 1777167999 | 8.33° C | 49% | 1016.4 hPa | 0 mm | 1.34 m/s, 286° | 0 W/m² | - |
| 1777167938 | 8.33° C | 48% | 1016.2 hPa | 0 mm | 1.79 m/s, 305° | 0 W/m² | - |
* Rain latest hour (hover to see other rain measurements)
** Current wind speed in m/s (hover to see current wind gust speed)